Time,TemperatureF,DewpointF,PressureIn,WindDirection,WindDirectionDegrees,WindSpeedMPH,WindSpeedGustMPH,Humidity,HourlyPrecipIn,Conditions,Clouds,dailyrainin,SoftwareType,DateUTC
2013-02-24 00:00:00,30.0,23.4,29.97,SE,139,3.0,6.0,76,0.00,,,0.00,meteohub,2013-02-24 05:00:00,
2013-02-24 00:01:00,30.2,23.5,29.97,SE,136,3.0,6.0,76,0.00,,,0.00,meteohub,2013-02-24 05:01:00,
2013-02-24 00:06:00,30.2,23.5,29.97,SE,136,5.0,6.0,76,0.00,,,0.00,meteohub,2013-02-24 05:06:00,
2013-02-24 00:11:00,30.2,23.5,29.97,ESE,117,4.0,6.0,76,0.00,,,0.00,meteohub,2013-02-24 05:11:00,
2013-02-24 00:16:00,30.2,23.5,29.97,SSE,150,0.0,6.0,76,0.00,,,0.00,meteohub,2013-02-24 05:16:00,
2013-02-24 00:21:00,30.0,23.4,29.94,SSE,151,0.0,6.0,76,0.00,,,0.00,meteohub,2013-02-24 05:21:00,
2013-02-24 00:26:00,30.0,23.0,29.94,SE,140,0.0,5.0,75,0.00,,,0.00,meteohub,2013-02-24 05:26:00,
2013-02-24 00:31:00,30.0,23.0,29.94,SSE,150,0.0,5.0,75,0.00,,,0.00,meteohub,2013-02-24 05:31:00,
2013-02-24 00:36:00,30.0,23.0,29.94,ESE,110,4.0,5.0,75,0.00,,,0.00,meteohub,2013-02-24 05:36:00,
2013-02-24 00:41:00,30.0,23.0,29.94,SSW,200,3.0,5.0,75,0.00,,,0.00,meteohub,2013-02-24 05:41:00,
2013-02-24 00:46:00,30.0,23.0,29.94,South,175,0.0,7.0,75,0.00,,,0.00,meteohub,2013-02-24 05:46:00,
2013-02-24 00:51:00,30.0,23.0,29.94,ESE,120,8.0,8.0,75,0.00,,,0.00,meteohub,2013-02-24 05:51:00,
2013-02-24 00:56:00,30.0,23.4,29.94,SE,141,5.0,8.0,76,0.00,,,0.00,meteohub,2013-02-24 05:56:00,
2013-02-24 01:01:00,30.0,23.4,29.94,SE,137,0.0,8.0,76,0.00,,,0.00,meteohub,2013-02-24 06:01:00,
2013-02-24 01:06:00,30.0,23.4,29.94,SE,140,5.0,8.0,76,0.00,,,0.00,meteohub,2013-02-24 06:06:00,
2013-02-24 01:11:00,30.2,23.5,29.94,SE,128,6.0,8.0,76,0.00,,,0.00,meteohub,2013-02-24 06:11:00,
2013-02-24 01:16:00,30.2,23.5,29.94,SE,125,4.0,8.0,76,0.00,,,0.00,meteohub,2013-02-24 06:16:00,
2013-02-24 01:21:00,30.2,23.5,29.94,SE,139,6.0,8.0,76,0.00,,,0.00,meteohub,2013-02-24 06:21:00,
2013-02-24 01:26:00,30.2,23.5,29.94,ESE,108,0.0,8.0,76,0.00,,,0.00,meteohub,2013-02-24 06:26:00,
2013-02-24 01:31:00,30.0,23.4,29.94,SE,141,3.0,8.0,76,0.00,,,0.00,meteohub,2013-02-24 06:31:00,
2013-02-24 01:36:00,30.2,23.5,29.94,South,176,6.0,8.0,76,0.00,,,0.00,meteohub,2013-02-24 06:36:00,
2013-02-24 01:41:00,30.2,23.5,29.94,SSE,148,4.0,8.0,76,0.00,,,0.00,meteohub,2013-02-24 06:41:00,
2013-02-24 01:46:00,30.2,23.5,29.94,ESE,111,0.0,8.0,76,0.00,,,0.00,meteohub,2013-02-24 06:46:00,
2013-02-24 01:51:00,30.2,23.9,29.91,SE,141,4.0,8.0,77,0.00,,,0.00,meteohub,2013-02-24 06:51:00,
2013-02-24 01:56:00,30.2,23.9,29.91,SE,142,6.0,8.0,77,0.00,,,0.00,meteohub,2013-02-24 06:56:00,
2013-02-24 02:01:00,30.2,23.9,29.91,SE,141,5.0,8.0,77,0.00,,,0.00,meteohub,2013-02-24 07:01:00,
2013-02-24 02:06:00,30.2,23.9,29.91,SE,141,5.0,9.0,77,0.00,,,0.00,meteohub,2013-02-24 07:06:00,
2013-02-24 02:11:00,30.2,23.9,29.91,SE,138,6.0,9.0,77,0.00,,,0.00,meteohub,2013-02-24 07:11:00,
2013-02-24 02:16:00,30.2,23.9,29.91,SE,134,5.0,9.0,77,0.00,,,0.00,meteohub,2013-02-24 07:16:00,
2013-02-24 02:21:00,30.2,23.9,29.91,SSE,157,4.0,9.0,77,0.00,,,0.00,meteohub,2013-02-24 07:21:00,
2013-02-24 02:26:00,30.2,23.9,29.91,ENE,76,0.0,9.0,77,0.00,,,0.00,meteohub,2013-02-24 07:26:00,
2013-02-24 02:31:00,30.2,23.9,29.91,SE,146,3.0,9.0,77,0.00,,,0.00,meteohub,2013-02-24 07:31:00,
2013-02-24 02:36:00,30.2,23.9,29.88,SSE,160,4.0,8.0,77,0.00,,,0.00,meteohub,2013-02-24 07:36:00,
2013-02-24 02:41:00,30.2,23.9,29.88,SSE,151,9.0,9.0,77,0.00,,,0.00,meteohub,2013-02-24 07:41:00,
2013-02-24 02:46:00,30.4,24.1,29.88,SE,130,8.0,9.0,77,0.00,,,0.00,meteohub,2013-02-24 07:46:00,
2013-02-24 02:51:00,30.4,24.1,29.88,SE,138,7.0,9.0,77,0.00,,,0.00,meteohub,2013-02-24 07:51:00,
2013-02-24 02:56:00,30.4,24.1,29.88,East,100,4.0,9.0,77,0.00,,,0.00,meteohub,2013-02-24 07:56:00,
2013-02-24 03:01:00,30.4,24.1,29.88,SE,140,2.0,9.0,77,0.00,,,0.00,meteohub,2013-02-24 08:01:00,
2013-02-24 03:06:00,30.4,24.1,29.88,SE,146,3.0,11.0,77,0.00,,,0.00,meteohub,2013-02-24 08:06:00,
2013-02-24 03:11:00,30.4,24.1,29.88,SSE,148,5.0,11.0,77,0.00,,,0.00,meteohub,2013-02-24 08:11:00,
2013-02-24 03:16:00,30.4,24.1,29.88,SE,142,3.0,11.0,77,0.00,,,0.00,meteohub,2013-02-24 08:16:00,
2013-02-24 03:21:00,30.4,24.1,29.88,SE,137,5.0,9.0,77,0.00,,,0.00,meteohub,2013-02-24 08:21:00,
2013-02-24 03:26:00,30.4,24.1,29.88,SSE,153,8.0,9.0,77,0.00,,,0.00,meteohub,2013-02-24 08:26:00,
2013-02-24 03:31:00,30.4,24.1,29.88,SE,141,5.0,9.0,77,0.00,,,0.00,meteohub,2013-02-24 08:31:00,
2013-02-24 03:36:00,30.4,24.1,29.88,SSE,151,5.0,10.0,77,0.00,,,0.00,meteohub,2013-02-24 08:36:00,
2013-02-24 03:41:00,30.4,24.1,29.88,SE,135,2.0,10.0,77,0.00,,,0.00,meteohub,2013-02-24 08:41:00,
2013-02-24 03:46:00,30.4,24.1,29.88,SE,139,4.0,8.0,77,0.00,,,0.00,meteohub,2013-02-24 08:46:00,
2013-02-24 03:51:00,30.4,24.1,29.88,SE,143,4.0,8.0,77,0.00,,,0.00,meteohub,2013-02-24 08:51:00,
2013-02-24 03:56:00,30.4,24.1,29.88,SE,136,4.0,6.0,77,0.00,,,0.00,meteohub,2013-02-24 08:56:00,
2013-02-24 04:01:00,30.2,24.3,29.88,SSE,149,4.0,6.0,78,0.00,,,0.00,meteohub,2013-02-24 09:01:00,
2013-02-24 04:06:00,30.2,24.3,29.88,SE,142,5.0,6.0,78,0.00,,,0.00,meteohub,2013-02-24 09:06:00,
2013-02-24 04:11:00,30.2,24.3,29.88,SE,143,3.0,6.0,78,0.00,,,0.00,meteohub,2013-02-24 09:11:00,
2013-02-24 04:16:00,30.2,24.3,29.88,SSE,155,5.0,6.0,78,0.00,,,0.00,meteohub,2013-02-24 09:16:00,
2013-02-24 04:21:00,30.2,24.3,29.88,SE,136,3.0,8.0,78,0.00,,,0.00,meteohub,2013-02-24 09:21:00,
2013-02-24 04:26:00,30.2,24.3,29.88,SE,142,3.0,8.0,78,0.00,,,0.00,meteohub,2013-02-24 09:26:00,
2013-02-24 04:31:00,30.2,24.3,29.88,SSE,147,4.0,8.0,78,0.00,,,0.00,meteohub,2013-02-24 09:31:00,
2013-02-24 04:36:00,30.2,24.3,29.88,SSE,151,3.0,8.0,78,0.00,,,0.00,meteohub,2013-02-24 09:36:00,
2013-02-24 04:41:00,30.2,24.3,29.88,SE,143,4.0,8.0,78,0.00,,,0.00,meteohub,2013-02-24 09:41:00,
2013-02-24 04:46:00,30.2,24.3,29.88,ESE,117,2.0,8.0,78,0.00,,,0.00,meteohub,2013-02-24 09:46:00,
2013-02-24 04:51:00,30.2,24.3,29.88,SE,140,0.0,8.0,78,0.00,,,0.00,meteohub,2013-02-24 09:51:00,
2013-02-24 04:56:00,30.2,24.3,29.88,ESE,114,0.0,5.0,78,0.00,,,0.00,meteohub,2013-02-24 09:56:00,
2013-02-24 05:01:00,30.2,24.3,29.88,SE,141,4.0,5.0,78,0.00,,,0.00,meteohub,2013-02-24 10:01:00,
2013-02-24 05:06:00,30.2,24.3,29.88,SE,129,4.0,5.0,78,0.00,,,0.00,meteohub,2013-02-24 10:06:00,
2013-02-24 05:11:00,30.2,24.3,29.88,SE,141,3.0,5.0,78,0.00,,,0.00,meteohub,2013-02-24 10:11:00,
2013-02-24 05:16:00,30.2,24.3,29.88,ESE,122,0.0,5.0,78,0.00,,,0.00,meteohub,2013-02-24 10:16:00,
2013-02-24 05:21:00,30.2,24.3,29.88,SSE,149,2.0,5.0,78,0.00,,,0.00,meteohub,2013-02-24 10:21:00,
2013-02-24 05:26:00,30.2,24.3,29.88,SSE,150,0.0,5.0,78,0.00,,,0.00,meteohub,2013-02-24 10:26:00,
2013-02-24 05:31:00,30.2,23.9,29.88,SSE,150,0.0,3.0,77,-99.99,,,0.00,meteohub,2013-02-24 10:31:00,
2013-02-24 05:36:00,30.2,23.9,29.88,SSE,150,0.0,3.0,77,-99.99,,,0.00,meteohub,2013-02-24 10:36:00,
2013-02-24 05:41:00,30.2,23.9,29.88,SSE,150,0.0,0.0,77,-99.99,,,0.00,meteohub,2013-02-24 10:41:00,
2013-02-24 05:46:00,30.2,24.3,29.88,SSE,150,0.0,0.0,78,-99.99,,,0.00,meteohub,2013-02-24 10:46:00,
2013-02-24 05:51:00,30.2,24.3,29.88,SSE,150,0.0,0.0,78,-99.99,,,0.00,meteohub,2013-02-24 10:51:00,
2013-02-24 05:56:00,30.2,24.3,29.88,SSE,150,0.0,0.0,78,-99.99,,,0.00,meteohub,2013-02-24 10:56:00,
2013-02-24 06:01:00,30.2,23.9,29.88,SSE,150,3.0,0.0,77,-99.99,,,0.00,meteohub,2013-02-24 11:01:00,
2013-02-24 06:06:00,30.2,23.9,29.88,SSE,150,0.0,0.0,77,-99.99,,,0.00,meteohub,2013-02-24 11:06:00,
2013-02-24 06:11:00,30.2,23.9,29.88,SSE,150,0.0,0.0,77,-99.99,,,0.00,meteohub,2013-02-24 11:11:00,
2013-02-24 06:16:00,30.2,23.9,29.88,SSE,150,0.0,3.0,77,-99.99,,,0.00,meteohub,2013-02-24 11:16:00,
2013-02-24 06:21:00,30.2,23.9,29.88,SSE,150,0.0,3.0,77,-99.99,,,0.00,meteohub,2013-02-24 11:21:00,
2013-02-24 06:26:00,30.2,23.9,29.88,SSE,150,0.0,3.0,77,-99.99,,,0.00,meteohub,2013-02-24 11:26:00,
2013-02-24 06:31:00,30.2,23.9,29.88,SSE,150,0.0,3.0,77,-99.99,,,0.00,meteohub,2013-02-24 11:31:00,
2013-02-24 06:36:00,30.2,23.9,29.88,SSE,150,0.0,3.0,77,-99.99,,,0.00,meteohub,2013-02-24 11:36:00,
2013-02-24 06:41:00,30.2,23.9,29.88,SSE,150,0.0,3.0,77,-99.99,,,0.00,meteohub,2013-02-24 11:41:00,
2013-02-24 06:46:00,30.2,23.9,29.88,SSE,150,0.0,3.0,77,-99.99,,,0.00,meteohub,2013-02-24 11:46:00,
2013-02-24 06:51:00,30.2,23.9,29.85,SSE,150,0.0,2.0,77,0.00,,,0.00,meteohub,2013-02-24 11:51:00,
2013-02-24 06:56:00,30.2,23.9,29.85,SSE,150,0.0,2.0,77,0.00,,,0.00,meteohub,2013-02-24 11:56:00,
2013-02-24 07:01:00,30.2,23.9,29.85,SSE,150,0.0,0.0,77,0.00,,,0.00,meteohub,2013-02-24 12:01:00,
2013-02-24 07:06:00,30.2,23.9,29.85,SSE,150,0.0,0.0,77,0.00,,,0.00,meteohub,2013-02-24 12:06:00,
2013-02-24 07:11:00,30.2,23.9,29.85,SSE,150,0.0,0.0,77,0.00,,,0.00,meteohub,2013-02-24 12:11:00,
2013-02-24 07:16:00,30.2,23.9,29.85,ESE,122,3.0,3.0,77,0.00,,,0.00,meteohub,2013-02-24 12:16:00,
2013-02-24 07:22:00,30.2,23.9,29.85,SSE,151,0.0,6.0,77,0.00,,,0.00,meteohub,2013-02-24 12:22:00,
2013-02-24 07:27:00,30.2,23.9,29.85,SSE,158,0.0,6.0,77,0.00,,,0.00,meteohub,2013-02-24 12:27:00,
2013-02-24 07:31:00,30.2,23.9,29.85,East,93,4.0,6.0,77,0.00,,,0.00,meteohub,2013-02-24 12:31:00,
2013-02-24 07:37:00,30.2,23.9,29.85,East,99,0.0,6.0,77,0.00,,,0.00,meteohub,2013-02-24 12:37:00,
2013-02-24 07:41:00,30.2,23.9,29.85,East,99,0.0,5.0,77,0.00,,,0.00,meteohub,2013-02-24 12:41:00,
2013-02-24 07:46:00,30.4,23.7,29.85,North,4,0.0,5.0,76,0.00,,,0.00,meteohub,2013-02-24 12:46:00,
2013-02-24 07:51:00,30.4,23.7,29.85,NNE,33,0.0,0.0,76,-99.99,,,0.00,meteohub,2013-02-24 12:51:00,
2013-02-24 07:56:00,30.4,23.7,29.85,NNE,33,0.0,0.0,76,-99.99,,,0.00,meteohub,2013-02-24 12:56:00,
2013-02-24 08:02:00,30.4,23.7,29.85,NNE,33,0.0,3.0,76,-99.99,,,0.00,meteohub,2013-02-24 13:02:00,
2013-02-24 08:07:00,30.6,23.9,29.85,NNE,33,0.0,3.0,76,-99.99,,,0.00,meteohub,2013-02-24 13:07:00,
2013-02-24 08:12:00,30.6,23.9,29.85,North,11,0.0,3.0,76,-99.99,,,0.00,meteohub,2013-02-24 13:12:00,
2013-02-24 08:17:00,30.6,23.9,29.85,North,7,0.0,0.0,76,-99.99,,,0.00,meteohub,2013-02-24 13:17:00,
2013-02-24 08:22:00,30.6,23.9,29.85,ENE,68,0.0,2.0,76,-99.99,,,0.00,meteohub,2013-02-24 13:22:00,
2013-02-24 08:27:00,30.6,23.9,29.85,ENE,68,0.0,2.0,76,-99.99,,,0.00,meteohub,2013-02-24 13:27:00,
2013-02-24 08:32:00,30.6,23.9,29.85,ESE,103,0.0,2.0,76,0.00,,,0.00,meteohub,2013-02-24 13:32:00,
2013-02-24 08:37:00,30.7,24.1,29.85,ESE,103,0.0,2.0,76,0.00,,,0.00,meteohub,2013-02-24 13:37:00,
2013-02-24 08:42:00,30.7,24.1,29.85,ESE,103,0.0,0.0,76,0.00,,,0.00,meteohub,2013-02-24 13:42:00,
2013-02-24 08:47:00,30.9,24.3,29.85,ESE,117,0.0,0.0,76,0.00,,,0.00,meteohub,2013-02-24 13:47:00,
2013-02-24 08:52:00,30.7,23.7,29.85,ENE,76,0.0,0.0,75,0.00,,,0.00,meteohub,2013-02-24 13:52:00,
2013-02-24 08:57:00,30.7,23.7,29.85,East,85,0.0,0.0,75,0.00,,,0.00,meteohub,2013-02-24 13:57:00,
2013-02-24 09:02:00,30.7,23.7,29.85,East,93,0.0,0.0,75,0.00,,,0.00,meteohub,2013-02-24 14:02:00,
2013-02-24 09:07:00,30.9,23.9,29.85,ENE,71,0.0,0.0,75,0.00,,,0.00,meteohub,2013-02-24 14:07:00,
2013-02-24 09:12:00,31.1,24.1,29.85,ENE,71,0.0,0.0,75,0.00,,,0.00,meteohub,2013-02-24 14:12:00,
2013-02-24 09:17:00,31.1,24.1,29.85,ENE,71,0.0,0.0,75,0.00,,,0.00,meteohub,2013-02-24 14:17:00,
2013-02-24 09:22:00,31.1,23.7,29.82,ENE,71,0.0,0.0,74,0.00,,,0.00,meteohub,2013-02-24 14:22:00,
2013-02-24 09:27:00,30.7,23.4,29.82,ENE,57,0.0,0.0,74,0.00,,,0.00,meteohub,2013-02-24 14:27:00,
2013-02-24 09:32:00,30.9,23.5,29.82,North,-999,-999.0,4.0,74,0.00,,,0.00,meteohub,2013-02-24 14:32:00,
2013-02-24 09:37:00,30.9,23.5,29.82,SE,138,4.0,4.0,74,0.00,,,0.00,meteohub,2013-02-24 14:37:00,
2013-02-24 09:42:00,30.9,23.4,29.82,NE,38,0.0,4.0,73,0.00,,,0.00,meteohub,2013-02-24 14:42:00,
2013-02-24 09:47:00,31.1,23.5,29.82,SSE,151,0.0,4.0,73,0.00,,,0.00,meteohub,2013-02-24 14:47:00,
2013-02-24 09:52:00,31.1,23.5,29.82,SE,130,0.0,4.0,73,0.00,,,0.00,meteohub,2013-02-24 14:52:00,
2013-02-24 09:57:00,31.1,23.5,29.82,SE,131,0.0,4.0,73,0.00,,,0.00,meteohub,2013-02-24 14:57:00,
2013-02-24 10:02:00,31.1,23.5,29.82,North,-999,-999.0,4.0,73,0.00,,,0.00,meteohub,2013-02-24 15:02:00,
2013-02-24 10:07:00,31.3,23.7,29.82,South,175,0.0,4.0,73,0.00,,,0.00,meteohub,2013-02-24 15:07:00,
2013-02-24 10:12:00,31.5,23.9,29.82,North,-999,-999.0,0.0,73,0.00,,,0.00,meteohub,2013-02-24 15:12:00,
2013-02-24 10:17:00,31.5,23.9,29.82,North,-999,-999.0,0.0,73,0.00,,,0.00,meteohub,2013-02-24 15:17:00,
2013-02-24 10:22:00,31.5,23.9,29.82,North,-999,-999.0,0.0,73,0.00,,,0.00,meteohub,2013-02-24 15:22:00,
2013-02-24 10:27:00,31.3,23.7,29.82,North,-999,-999.0,-999.0,73,0.00,,,0.00,meteohub,2013-02-24 15:27:00,
2013-02-24 10:32:00,31.6,23.9,29.82,North,-999,-999.0,-999.0,73,0.00,,,0.00,meteohub,2013-02-24 15:32:00,
2013-02-24 10:37:00,31.8,23.9,29.82,North,-999,-999.0,-999.0,72,0.00,,,0.00,meteohub,2013-02-24 15:37:00,
2013-02-24 10:42:00,31.6,23.7,29.82,North,-999,-999.0,-999.0,72,0.00,,,0.00,meteohub,2013-02-24 15:42:00,
2013-02-24 10:47:00,32.0,24.1,29.82,North,-999,-999.0,-999.0,72,0.00,,,0.00,meteohub,2013-02-24 15:47:00,
2013-02-24 10:52:00,32.0,24.1,29.82,North,-999,-999.0,-999.0,72,0.00,,,0.00,meteohub,2013-02-24 15:52:00,
2013-02-24 10:57:00,32.4,24.3,29.82,North,-999,-999.0,-999.0,72,0.00,,,0.00,meteohub,2013-02-24 15:57:00,
2013-02-24 11:02:00,32.2,23.9,29.82,North,-999,-999.0,-999.0,71,0.00,,,0.00,meteohub,2013-02-24 16:02:00,
2013-02-24 11:07:00,32.5,24.3,29.82,North,-999,-999.0,-999.0,71,0.00,,,0.00,meteohub,2013-02-24 16:07:00,
2013-02-24 11:12:00,32.5,24.3,29.82,North,-999,-999.0,-999.0,71,0.00,,,0.00,meteohub,2013-02-24 16:12:00,
2013-02-24 11:17:00,32.9,24.3,29.82,North,-999,-999.0,-999.0,70,0.00,,,0.00,meteohub,2013-02-24 16:17:00,
2013-02-24 11:22:00,32.5,23.9,29.79,North,-999,-999.0,-999.0,70,0.00,,,0.00,meteohub,2013-02-24 16:22:00,
2013-02-24 11:27:00,32.5,23.5,29.79,North,-999,-999.0,-999.0,69,0.00,,,0.00,meteohub,2013-02-24 16:27:00,
2013-02-24 11:32:00,32.7,23.7,29.79,North,-999,-999.0,-999.0,69,0.00,,,0.00,meteohub,2013-02-24 16:32:00,
2013-02-24 11:37:00,32.9,23.9,29.82,North,-999,-999.0,-999.0,69,0.00,,,0.00,meteohub,2013-02-24 16:37:00,
2013-02-24 11:42:00,33.1,24.1,29.82,North,-999,-999.0,-999.0,69,0.00,,,0.00,meteohub,2013-02-24 16:42:00,
2013-02-24 11:47:00,33.1,23.7,29.82,North,-999,-999.0,-999.0,68,0.00,,,0.00,meteohub,2013-02-24 16:47:00,
2013-02-24 11:52:00,33.3,23.9,29.79,North,-999,-999.0,-999.0,68,0.00,,,0.00,meteohub,2013-02-24 16:52:00,
2013-02-24 11:57:00,33.3,23.9,29.79,North,-999,-999.0,-999.0,68,0.00,,,0.00,meteohub,2013-02-24 16:57:00,
2013-02-24 12:02:00,33.3,23.5,29.79,North,-999,-999.0,-999.0,67,0.00,,,0.00,meteohub,2013-02-24 17:02:00,
2013-02-24 12:07:00,32.9,22.8,29.79,North,-999,-999.0,-999.0,66,0.00,,,0.00,meteohub,2013-02-24 17:07:00,
2013-02-24 12:12:00,33.1,23.0,29.79,North,-999,-999.0,-999.0,66,0.00,,,0.00,meteohub,2013-02-24 17:12:00,
2013-02-24 12:17:00,33.3,23.5,29.79,North,-999,-999.0,-999.0,67,0.00,,,0.00,meteohub,2013-02-24 17:17:00,
2013-02-24 12:22:00,33.3,23.2,29.79,North,-999,-999.0,-999.0,66,0.00,,,0.00,meteohub,2013-02-24 17:22:00,
2013-02-24 12:27:00,33.4,23.4,29.79,North,-999,-999.0,-999.0,66,0.00,,,0.00,meteohub,2013-02-24 17:27:00,
2013-02-24 12:32:00,33.4,23.4,29.79,NNE,17,0.0,-999.0,66,0.00,,,0.00,meteohub,2013-02-24 17:32:00,
2013-02-24 12:37:00,33.4,23.4,29.79,NNE,12,0.0,0.0,66,0.00,,,0.00,meteohub,2013-02-24 17:37:00,
2013-02-24 12:42:00,33.4,23.0,29.79,NNW,340,0.0,0.0,65,0.00,,,0.00,meteohub,2013-02-24 17:42:00,
2013-02-24 12:47:00,33.4,23.0,29.79,North,357,0.0,0.0,65,0.00,,,0.00,meteohub,2013-02-24 17:47:00,
2013-02-24 12:52:00,33.1,21.9,29.79,North,0,0.0,0.0,63,0.00,,,0.00,meteohub,2013-02-24 17:52:00,
2013-02-24 12:57:00,33.1,21.9,29.79,NE,55,0.0,0.0,63,0.00,,,0.00,meteohub,2013-02-24 17:57:00,
2013-02-24 13:02:00,33.3,22.1,29.79,ENE,77,0.0,0.0,63,0.00,,,0.00,meteohub,2013-02-24 18:02:00,
2013-02-24 13:07:00,33.1,21.6,29.79,ENE,71,0.0,2.0,62,0.00,,,0.00,meteohub,2013-02-24 18:07:00,
2013-02-24 13:12:00,33.1,21.6,29.79,East,83,0.0,2.0,62,0.00,,,0.00,meteohub,2013-02-24 18:12:00,
2013-02-24 13:17:00,33.1,21.6,29.79,North,357,0.0,2.0,62,0.00,,,0.00,meteohub,2013-02-24 18:17:00,
2013-02-24 13:22:00,32.9,21.4,29.79,ESE,111,0.0,0.0,62,0.00,,,0.00,meteohub,2013-02-24 18:22:00,
2013-02-24 13:27:00,32.7,21.2,29.79,NE,34,0.0,0.0,62,0.00,,,0.00,meteohub,2013-02-24 18:27:00,
2013-02-24 13:32:00,32.5,21.4,29.79,NNW,335,0.0,0.0,63,0.00,,,0.00,meteohub,2013-02-24 18:32:00,
2013-02-24 13:37:00,32.5,21.7,29.79,North,0,0.0,0.0,64,0.00,,,0.00,meteohub,2013-02-24 18:37:00,
2013-02-24 13:42:00,32.7,21.9,29.79,ENE,69,0.0,0.0,64,0.00,,,0.00,meteohub,2013-02-24 18:42:00,
2013-02-24 13:47:00,32.9,22.5,29.79,East,91,0.0,0.0,65,0.00,,,0.00,meteohub,2013-02-24 18:47:00,
2013-02-24 13:52:00,32.5,21.7,29.79,NE,39,0.0,0.0,64,0.00,,,0.00,meteohub,2013-02-24 18:52:00,
2013-02-24 13:57:00,32.7,21.9,29.79,NE,39,0.0,0.0,64,0.00,,,0.00,meteohub,2013-02-24 18:57:00,
2013-02-24 14:02:00,32.9,22.1,29.79,SE,144,0.0,0.0,64,0.00,,,0.00,meteohub,2013-02-24 19:02:00,
2013-02-24 14:07:00,33.1,22.3,29.76,ESE,123,0.0,0.0,64,0.00,,,0.00,meteohub,2013-02-24 19:07:00,
2013-02-24 14:12:00,33.4,23.0,29.76,ESE,123,0.0,0.0,65,0.00,,,0.00,meteohub,2013-02-24 19:12:00,
2013-02-24 14:17:00,33.6,23.2,29.76,ESE,123,0.0,0.0,65,0.00,,,0.00,meteohub,2013-02-24 19:17:00,
2013-02-24 14:22:00,33.8,23.0,29.79,ESE,123,0.0,0.0,64,0.00,,,0.00,meteohub,2013-02-24 19:22:00,
2013-02-24 14:27:00,33.6,22.8,29.79,ESE,123,0.0,0.0,64,0.00,,,0.00,meteohub,2013-02-24 19:27:00,
2013-02-24 14:32:00,33.8,23.0,29.79,ESE,123,0.0,0.0,64,0.00,,,0.00,meteohub,2013-02-24 19:32:00,
2013-02-24 14:37:00,33.8,23.0,29.79,ESE,123,0.0,0.0,64,0.00,,,0.00,meteohub,2013-02-24 19:37:00,
2013-02-24 14:42:00,33.8,23.0,29.79,ESE,123,0.0,0.0,64,0.00,,,0.00,meteohub,2013-02-24 19:42:00,
2013-02-24 14:47:00,33.1,21.9,29.79,ENE,65,0.0,0.0,63,0.00,,,0.00,meteohub,2013-02-24 19:47:00,
2013-02-24 14:52:00,32.9,21.7,29.79,ENE,64,0.0,0.0,63,0.00,,,0.00,meteohub,2013-02-24 19:52:00,
2013-02-24 14:57:00,33.1,22.3,29.79,ENE,64,0.0,0.0,64,0.00,,,0.00,meteohub,2013-02-24 19:57:00,
2013-02-24 15:02:00,33.1,22.6,29.79,ESE,121,0.0,0.0,65,0.00,,,0.00,meteohub,2013-02-24 20:02:00,
2013-02-24 15:07:00,33.1,22.6,29.76,North,7,0.0,0.0,65,0.00,,,0.00,meteohub,2013-02-24 20:07:00,
2013-02-24 15:12:00,33.3,22.8,29.76,ENE,68,0.0,0.0,65,0.00,,,0.00,meteohub,2013-02-24 20:12:00,
2013-02-24 15:17:00,33.3,22.8,29.76,NNE,24,0.0,0.0,65,0.00,,,0.00,meteohub,2013-02-24 20:17:00,
2013-02-24 15:22:00,33.4,23.0,29.76,NE,41,0.0,0.0,65,0.00,,,0.00,meteohub,2013-02-24 20:22:00,
2013-02-24 15:27:00,33.6,23.2,29.76,ENE,62,0.0,0.0,65,0.00,,,0.00,meteohub,2013-02-24 20:27:00,
2013-02-24 15:32:00,33.4,22.6,29.76,ENE,72,0.0,0.0,64,0.00,,,0.00,meteohub,2013-02-24 20:32:00,
2013-02-24 15:37:00,33.6,22.8,29.79,ENE,72,0.0,0.0,64,0.00,,,0.00,meteohub,2013-02-24 20:37:00,
2013-02-24 15:42:00,33.6,22.8,29.79,SE,125,0.0,0.0,64,0.00,,,0.00,meteohub,2013-02-24 20:42:00,
2013-02-24 15:47:00,33.4,22.6,29.79,SE,125,0.0,0.0,64,0.00,,,0.00,meteohub,2013-02-24 20:47:00,
2013-02-24 15:52:00,33.3,22.5,29.79,SE,125,0.0,0.0,64,0.00,,,0.00,meteohub,2013-02-24 20:52:00,
2013-02-24 15:57:00,33.1,22.3,29.79,SE,125,0.0,0.0,64,0.00,,,0.00,meteohub,2013-02-24 20:57:00,
2013-02-24 16:02:00,33.3,22.5,29.79,SE,125,0.0,0.0,64,0.00,,,0.00,meteohub,2013-02-24 21:02:00,
2013-02-24 16:07:00,33.3,22.5,29.79,SE,125,0.0,0.0,64,0.00,,,0.00,meteohub,2013-02-24 21:07:00,
2013-02-24 16:12:00,33.3,22.5,29.79,SE,125,0.0,0.0,64,0.00,,,0.00,meteohub,2013-02-24 21:12:00,
2013-02-24 16:17:00,33.3,22.5,29.79,SE,125,0.0,0.0,64,0.00,,,0.00,meteohub,2013-02-24 21:17:00,
2013-02-24 16:22:00,33.3,22.5,29.76,SE,125,0.0,0.0,64,0.00,,,0.00,meteohub,2013-02-24 21:22:00,
2013-02-24 16:27:00,33.3,22.5,29.76,SE,125,0.0,0.0,64,0.00,,,0.00,meteohub,2013-02-24 21:27:00,
2013-02-24 16:32:00,33.3,22.5,29.76,SE,125,0.0,0.0,64,0.00,,,0.00,meteohub,2013-02-24 21:32:00,
2013-02-24 16:37:00,33.3,22.5,29.79,SE,125,0.0,0.0,64,0.00,,,0.00,meteohub,2013-02-24 21:37:00,
2013-02-24 16:42:00,33.3,22.5,29.79,SE,125,0.0,0.0,64,0.00,,,0.00,meteohub,2013-02-24 21:42:00,
2013-02-24 16:47:00,33.1,22.3,29.79,SE,125,0.0,0.0,64,0.00,,,0.00,meteohub,2013-02-24 21:47:00,
2013-02-24 16:52:00,33.1,22.3,29.79,SE,125,0.0,0.0,64,0.00,,,0.00,meteohub,2013-02-24 21:52:00,
2013-02-24 16:57:00,32.9,22.1,29.79,SE,125,0.0,0.0,64,0.00,,,0.00,meteohub,2013-02-24 21:57:00,
2013-02-24 17:02:00,32.9,22.5,29.79,SE,125,0.0,0.0,65,0.00,,,0.00,meteohub,2013-02-24 22:02:00,
2013-02-24 17:07:00,32.7,22.3,29.79,SE,125,0.0,0.0,65,0.00,,,0.00,meteohub,2013-02-24 22:07:00,
2013-02-24 17:12:00,32.7,22.3,29.79,SE,125,0.0,0.0,65,0.00,,,0.00,meteohub,2013-02-24 22:12:00,
2013-02-24 17:17:00,32.7,22.3,29.79,SE,125,0.0,0.0,65,0.00,,,0.00,meteohub,2013-02-24 22:17:00,
2013-02-24 17:22:00,32.4,21.9,29.79,SE,125,0.0,0.0,65,0.00,,,0.00,meteohub,2013-02-24 22:22:00,
2013-02-24 17:27:00,32.2,21.7,29.79,SE,125,0.0,0.0,65,0.00,,,0.00,meteohub,2013-02-24 22:27:00,
2013-02-24 17:32:00,32.2,22.1,29.79,SE,125,0.0,0.0,66,0.00,,,0.00,meteohub,2013-02-24 22:32:00,
2013-02-24 17:37:00,32.2,22.1,29.79,SE,125,0.0,0.0,66,0.00,,,0.00,meteohub,2013-02-24 22:37:00,
2013-02-24 17:42:00,32.2,22.1,29.79,SE,125,0.0,0.0,66,0.00,,,0.00,meteohub,2013-02-24 22:42:00,
2013-02-24 17:47:00,32.2,22.5,29.79,SE,125,0.0,0.0,67,0.00,,,0.00,meteohub,2013-02-24 22:47:00,
2013-02-24 17:52:00,32.2,22.5,29.82,SE,125,0.0,0.0,67,0.00,,,0.00,meteohub,2013-02-24 22:52:00,
2013-02-24 17:57:00,32.0,22.3,29.82,SE,125,0.0,0.0,67,0.00,,,0.00,meteohub,2013-02-24 22:57:00,
2013-02-24 18:02:00,32.2,22.5,29.82,SE,125,0.0,0.0,67,0.00,,,0.00,meteohub,2013-02-24 23:02:00,
2013-02-24 18:07:00,32.2,22.5,29.82,SE,125,0.0,0.0,67,0.00,,,0.00,meteohub,2013-02-24 23:07:00,
2013-02-24 18:12:00,32.2,22.5,29.82,SE,125,0.0,0.0,67,0.00,,,0.00,meteohub,2013-02-24 23:12:00,
2013-02-24 18:17:00,32.2,22.5,29.82,SE,125,0.0,0.0,67,0.00,,,0.00,meteohub,2013-02-24 23:17:00,
2013-02-24 18:22:00,32.2,22.5,29.82,SE,125,0.0,0.0,67,0.00,,,0.00,meteohub,2013-02-24 23:22:00,
2013-02-24 18:27:00,32.0,22.3,29.82,SE,125,0.0,0.0,67,0.00,,,0.00,meteohub,2013-02-24 23:27:00,
2013-02-24 18:32:00,32.0,22.3,29.82,SE,125,0.0,0.0,67,0.00,,,0.00,meteohub,2013-02-24 23:32:00,
2013-02-24 18:37:00,32.0,22.3,29.82,SE,125,0.0,0.0,67,0.00,,,0.00,meteohub,2013-02-24 23:37:00,
2013-02-24 18:42:00,32.0,22.3,29.82,SE,125,0.0,0.0,67,0.00,,,0.00,meteohub,2013-02-24 23:42:00,
2013-02-24 18:47:00,32.0,22.3,29.82,SE,125,0.0,0.0,67,0.00,,,0.00,meteohub,2013-02-24 23:47:00,
2013-02-24 18:52:00,32.0,22.3,29.82,SE,125,0.0,0.0,67,0.00,,,0.00,meteohub,2013-02-24 23:52:00,
2013-02-24 18:57:00,32.0,22.6,29.82,SE,125,0.0,0.0,68,0.00,,,0.00,meteohub,2013-02-24 23:57:00,
2013-02-24 19:02:00,32.0,22.6,29.82,SE,125,0.0,0.0,68,0.00,,,0.00,meteohub,2013-02-25 00:02:00,
2013-02-24 19:07:00,31.8,22.5,29.82,SE,125,0.0,0.0,68,0.00,,,0.00,meteohub,2013-02-25 00:07:00,
2013-02-24 19:12:00,31.8,22.5,29.82,SE,125,0.0,0.0,68,0.00,,,0.00,meteohub,2013-02-25 00:12:00,
2013-02-24 19:17:00,31.8,22.5,29.82,SE,125,0.0,0.0,68,0.00,,,0.00,meteohub,2013-02-25 00:17:00,
2013-02-24 19:22:00,31.8,22.5,29.82,SE,125,0.0,0.0,68,0.00,,,0.00,meteohub,2013-02-25 00:22:00,
2013-02-24 19:27:00,31.8,22.5,29.82,SE,125,0.0,0.0,68,0.00,,,0.00,meteohub,2013-02-25 00:27:00,
2013-02-24 19:32:00,31.8,22.5,29.82,SE,125,0.0,0.0,68,0.00,,,0.00,meteohub,2013-02-25 00:32:00,
2013-02-24 19:37:00,31.8,22.5,29.85,SE,125,0.0,0.0,68,0.00,,,0.00,meteohub,2013-02-25 00:37:00,
2013-02-24 19:42:00,31.8,22.8,29.85,SE,125,0.0,0.0,69,0.00,,,0.00,meteohub,2013-02-25 00:42:00,
2013-02-24 19:47:00,31.8,22.8,29.85,SE,125,0.0,0.0,69,0.00,,,0.00,meteohub,2013-02-25 00:47:00,
2013-02-24 19:52:00,31.8,22.8,29.85,SE,125,0.0,0.0,69,0.00,,,0.00,meteohub,2013-02-25 00:52:00,
2013-02-24 19:57:00,31.8,22.8,-100.00,SE,125,0.0,0.0,69,0.00,,,0.00,meteohub,2013-02-25 00:57:00,
2013-02-24 20:02:00,31.8,22.8,-100.00,SE,125,0.0,0.0,69,0.00,,,0.00,meteohub,2013-02-25 01:02:00,
2013-02-24 20:07:00,31.8,22.8,-100.00,SE,125,0.0,0.0,69,0.00,,,0.00,meteohub,2013-02-25 01:07:00,
2013-02-24 20:12:00,31.8,22.8,-100.00,SE,125,0.0,0.0,69,0.00,,,0.00,meteohub,2013-02-25 01:12:00,
2013-02-24 20:17:00,31.6,23.0,29.85,SE,125,0.0,0.0,70,0.00,,,0.00,meteohub,2013-02-25 01:17:00,
2013-02-24 20:22:00,31.8,23.2,29.85,SE,125,0.0,0.0,70,0.00,,,0.00,meteohub,2013-02-25 01:22:00,
2013-02-24 20:27:00,31.8,23.2,29.85,SE,125,0.0,0.0,70,0.00,,,0.00,meteohub,2013-02-25 01:27:00,
2013-02-24 20:32:00,31.8,23.2,29.85,SE,125,0.0,0.0,70,0.00,,,0.00,meteohub,2013-02-25 01:32:00,
2013-02-24 20:37:00,31.8,23.2,29.85,SE,125,0.0,0.0,70,0.00,,,0.00,meteohub,2013-02-25 01:37:00,
2013-02-24 20:42:00,31.6,23.0,29.85,SE,125,0.0,0.0,70,0.00,,,0.00,meteohub,2013-02-25 01:42:00,
2013-02-24 20:47:00,31.6,23.4,29.85,SE,125,0.0,0.0,71,0.00,,,0.00,meteohub,2013-02-25 01:47:00,
2013-02-24 20:52:00,31.8,23.5,29.88,SE,125,0.0,0.0,71,0.00,,,0.00,meteohub,2013-02-25 01:52:00,
2013-02-24 20:57:00,31.8,23.5,29.88,North,-999,-999.0,0.0,71,0.00,,,0.00,meteohub,2013-02-25 01:57:00,
2013-02-24 21:02:00,31.8,23.5,29.88,North,-999,-999.0,0.0,71,0.00,,,0.00,meteohub,2013-02-25 02:02:00,
2013-02-24 21:07:00,31.8,23.9,29.88,SE,124,0.0,0.0,72,0.00,,,0.00,meteohub,2013-02-25 02:07:00,
2013-02-24 21:12:00,31.8,23.9,29.88,North,-999,-999.0,0.0,72,0.00,,,0.00,meteohub,2013-02-25 02:12:00,
2013-02-24 21:17:00,31.6,23.7,29.88,NNW,333,0.0,0.0,72,0.00,,,0.00,meteohub,2013-02-25 02:17:00,
2013-02-24 21:22:00,31.5,23.5,29.88,NW,316,0.0,0.0,72,0.00,,,0.00,meteohub,2013-02-25 02:22:00,
2013-02-24 21:27:00,31.3,23.4,29.88,NW,320,0.0,0.0,72,0.00,,,0.00,meteohub,2013-02-25 02:27:00,
2013-02-24 21:32:00,31.1,23.2,29.88,North,-999,-999.0,0.0,72,0.00,,,0.00,meteohub,2013-02-25 02:32:00,
2013-02-24 21:37:00,30.9,23.0,29.88,NW,320,0.0,0.0,72,0.00,,,0.00,meteohub,2013-02-25 02:37:00,
2013-02-24 21:42:00,30.7,22.5,29.88,NW,321,0.0,0.0,71,0.00,,,0.00,meteohub,2013-02-25 02:42:00,
2013-02-24 21:47:00,30.7,22.5,29.88,North,-999,-999.0,0.0,71,0.00,,,0.00,meteohub,2013-02-25 02:47:00,
2013-02-24 21:52:00,30.6,22.3,29.88,North,-999,-999.0,0.0,71,0.00,,,0.00,meteohub,2013-02-25 02:52:00,
2013-02-24 21:57:00,30.6,22.3,29.88,North,-999,-999.0,0.0,71,0.00,,,0.00,meteohub,2013-02-25 02:57:00,
2013-02-24 22:02:00,30.4,22.1,29.88,NW,321,0.0,0.0,71,0.00,,,0.00,meteohub,2013-02-25 03:02:00,
2013-02-24 22:07:00,30.4,22.1,29.88,NW,321,0.0,0.0,71,0.00,,,0.00,meteohub,2013-02-25 03:07:00,
2013-02-24 22:12:00,30.2,21.9,29.88,NW,321,0.0,0.0,71,0.00,,,0.00,meteohub,2013-02-25 03:12:00,
2013-02-24 22:17:00,30.2,21.9,29.88,North,-999,-999.0,0.0,71,0.00,,,0.00,meteohub,2013-02-25 03:17:00,
2013-02-24 22:22:00,30.2,21.9,29.88,NW,321,0.0,0.0,71,0.00,,,0.00,meteohub,2013-02-25 03:22:00,
2013-02-24 22:27:00,30.0,21.7,29.88,North,-999,-999.0,0.0,71,0.00,,,0.00,meteohub,2013-02-25 03:27:00,
2013-02-24 22:32:00,30.0,21.7,29.88,NW,321,0.0,0.0,71,0.00,,,0.00,meteohub,2013-02-25 03:32:00,
2013-02-24 22:37:00,29.8,21.6,29.88,NW,321,0.0,0.0,71,0.00,,,0.00,meteohub,2013-02-25 03:37:00,
2013-02-24 22:42:00,29.8,21.6,29.88,NW,321,0.0,0.0,71,0.00,,,0.00,meteohub,2013-02-25 03:42:00,
2013-02-24 22:47:00,29.8,21.6,29.88,NW,321,0.0,0.0,71,0.00,,,0.00,meteohub,2013-02-25 03:47:00,
2013-02-24 22:52:00,29.7,21.0,29.88,NW,321,0.0,0.0,70,0.00,,,0.00,meteohub,2013-02-25 03:52:00,
2013-02-24 22:57:00,29.7,21.0,29.88,NW,321,0.0,0.0,70,0.00,,,0.00,meteohub,2013-02-25 03:57:00,
2013-02-24 23:02:00,29.5,20.8,29.88,NW,321,0.0,0.0,70,0.00,,,0.00,meteohub,2013-02-25 04:02:00,
2013-02-24 23:07:00,29.5,20.8,29.91,North,-999,-999.0,0.0,70,0.00,,,0.00,meteohub,2013-02-25 04:07:00,
2013-02-24 23:12:00,29.5,20.8,29.91,North,-999,-999.0,0.0,70,0.00,,,0.00,meteohub,2013-02-25 04:12:00,
2013-02-24 23:17:00,29.5,20.8,29.91,North,-999,-999.0,0.0,70,0.00,,,0.00,meteohub,2013-02-25 04:17:00,
2013-02-24 23:22:00,29.3,20.7,29.91,NW,321,0.0,-999.0,70,0.00,,,0.00,meteohub,2013-02-25 04:22:00,
2013-02-24 23:27:00,29.3,20.7,29.91,North,-999,-999.0,0.0,70,0.00,,,0.00,meteohub,2013-02-25 04:27:00,
2013-02-24 23:32:00,29.1,20.5,29.91,NW,321,0.0,0.0,70,0.00,,,0.00,meteohub,2013-02-25 04:32:00,
2013-02-24 23:37:00,29.1,20.5,29.91,North,-999,-999.0,0.0,70,0.00,,,0.00,meteohub,2013-02-25 04:37:00,
2013-02-24 23:42:00,28.9,20.5,29.91,North,-999,-999.0,0.0,70,0.00,,,0.00,meteohub,2013-02-25 04:42:00,
2013-02-24 23:47:00,28.8,20.3,29.91,NW,321,0.0,0.0,70,0.00,,,0.00,meteohub,2013-02-25 04:47:00,
2013-02-24 23:52:00,28.6,19.8,29.91,North,-999,-999.0,0.0,69,0.00,,,0.00,meteohub,2013-02-25 04:52:00,
2013-02-24 23:57:00,28.6,19.8,29.91,NW,321,0.0,0.0,69,0.00,,,0.00,meteohub,2013-02-25 04:57:00,